Weather History for Fryeburg, ME

Change the Weather History Date:

Sunday, April 15, 2012

  Actual Average Record
Temperature  
Mean Temperature 58 °F -  
Max Temperature 80 °F 55 °F 82 °F (2003)
Min Temperature 37 °F 27 °F 16 °F (1997)
Degree Days  
Heating Degree Days 7    
Growing Degree Days 8 (Base 50)    
Moisture  
Dew Point 39 °F    
Average Humidity 46    
Maximum Humidity 79    
Minimum Humidity 25    
Precipitation  
Precipitation 0.00 in - - ()
Sea Level Pressure  
Sea Level Pressure 29.91 in    
Wind  
Wind Speed 3 mph (WSW)    
Max Wind Speed 14 mph    
Max Gust Speed 23 mph    
Visibility 10 miles    
Events      
Averages and records for this station are not official NWS values.
T = Trace of Precipitation, MM = Missing Value Source: NWS Daily Summary

Daily Weather History Graph

Daily Weather History Graph

Search for Another Location

Airport:

Trip Planner

Search our weather history database for the weather conditions in past years. The results will help you decide how hot, cold, wet, or windy it might be!

Date:

Astronomy

Apr. 15, 2012 Rise Set
Actual Time 5:59 AM EDT 7:28 PM EDT
Civil Twilight 5:29 AM EDT 7:58 PM EDT
Nautical Twilight 4:53 AM EDT 8:35 PM EDT
Astronomical Twilight 4:14 AM EDT 9:14 PM EDT
Moon 3:06 AM EDT (4/15) 2:09 PM EDT (4/15)
Length of Visible Light 14h 28m
Length of Day
13h 28m
Waning Crescent, 28% of the Moon is Illuminated
Apr 15
Waning Crescent
Apr 21
New
Apr 29
First Quarter
May 5
Full
May 12
Last Quarter

Hourly Weather History & Observations

Time (EDT) Temp. Dew Point Humidity Pressure Visibility Wind Dir Wind Speed Gust Speed Precip Events Conditions
12:54 AM 48.0 °F 32.0 °F 54% 29.96 in 10.0 mi Calm Calm - N/A   Overcast
1:54 AM 45.0 °F 32.0 °F 60% 29.96 in 10.0 mi Calm Calm - N/A   Mostly Cloudy
2:54 AM 50.0 °F 27.0 °F 41% 29.94 in 10.0 mi Calm Calm - N/A   Mostly Cloudy
3:54 AM 43.0 °F 30.0 °F 60% 29.93 in 10.0 mi Calm Calm - N/A   Overcast
4:54 AM 39.0 °F 30.0 °F 70% 29.94 in 10.0 mi Calm Calm - N/A   Clear
5:54 AM 37.0 °F 30.9 °F 79% 29.94 in 10.0 mi Calm Calm - N/A   Clear
6:54 AM 37.9 °F 32.0 °F 79% 29.95 in 10.0 mi Calm Calm - N/A   Clear
7:54 AM 48.0 °F 35.1 °F 61% 29.95 in 10.0 mi Calm Calm - N/A   Clear
8:54 AM 59.0 °F 33.1 °F 38% 29.94 in 10.0 mi Calm Calm - N/A   Clear
9:54 AM 64.9 °F 33.1 °F 31% 29.94 in 10.0 mi Variable 4.6 mph - N/A   Clear
10:54 AM 70.0 °F 39.0 °F 32% 29.91 in 10.0 mi WSW 6.9 mph - N/A   Clear
11:54 AM 72.0 °F 43.0 °F 35% 29.88 in 10.0 mi SSW 11.5 mph 19.6 mph N/A   Clear
12:54 PM 73.9 °F 43.0 °F 33% 29.86 in 10.0 mi SW 11.5 mph 23.0 mph N/A   Clear
1:54 PM 75.9 °F 43.0 °F 31% 29.84 in 10.0 mi WSW 8.1 mph 21.9 mph N/A   Clear
2:54 PM 79.0 °F 44.1 °F 29% 29.83 in 10.0 mi SSW 13.8 mph 20.7 mph N/A   Mostly Cloudy
3:54 PM 79.0 °F 42.1 °F 27% 29.83 in 10.0 mi West 9.2 mph - N/A   Partly Cloudy
4:54 PM 78.1 °F 39.9 °F 25% 29.84 in 10.0 mi Variable 6.9 mph 17.3 mph N/A   Clear
5:54 PM 75.9 °F 41.0 °F 29% 29.86 in 10.0 mi West 4.6 mph - N/A   Clear
6:54 PM 72.0 °F 43.0 °F 35% 29.87 in 10.0 mi West 3.5 mph - N/A   Clear
7:54 PM 66.9 °F 46.0 °F 47% 29.90 in 10.0 mi WSW 5.8 mph - N/A   Clear
8:54 PM 68.0 °F 48.0 °F 49% 29.93 in 10.0 mi WSW 5.8 mph - N/A   Scattered Clouds
9:54 PM 66.9 °F 48.9 °F 52% 29.93 in 10.0 mi WSW 5.8 mph - N/A   Mostly Cloudy
10:54 PM 66.9 °F 50.0 °F 54% 29.94 in 10.0 mi WSW 5.8 mph - N/A   Mostly Cloudy